User: anonymous   Login
Location: Unspecified
(0.0000°N, 0.0000°E)
Time: 12:57:50
(UTC+02:00)
Language:

Transit 2A - Orbit

View from above orbital plane
View from above orbital plane
View from above satellite
View from above satellite

Ground track
Ground track

The orbit data is extracted from the following two-line orbital elements,

1 00045U 60007A   15109.16991928  .00000306  00000-0  10218-3 0  9997
2 00045 066.6945 310.7833 0263430 249.0692 108.2033 14.33314129852331
Epoch (UTC): 19 April 2015 04:04:41
Eccentricity: 0.0263430
inclination: 66.6945°
perigee height: 592 km
apogee height: 969 km
right ascension of ascending node: 310.7833°
argument of perigee: 249.0692°
revolutions per day: 14.33314129
mean anomaly at epoch: 108.2033°
orbit number at epoch: 85233

The dashed part of the orbit path shows where the satellite is in the earth's shadow,  

DLR